Location: Castelbiague
(43.0361°N, 0.9246°E)
Time: 21:37:37
(UTC+00:00)

USA 215 - Pass Details

Date: 25 October 2021
Orbit: 1099 x 1109 km, 123.0° (Epoch: 20 November)

Event Time Altitude Azimuth Distance (km) Brightness Sun altitude
Exits shadow 18:24:09 10° 42° (NE) 2,968 5.1 -16.4°
Reaches altitude 10° 18:24:10 10° 42° (NE) 2,963 5.1 -16.4°
Maximum altitude 18:30:13 42° 335° (NNW) 1,527 4.2 -17.5°
Drops below altitude 10° 18:36:16 10° 267° (W) 2,962 6.8 -18.6°
Sets 18:38:52 0° 261° (W) 3,920 7.7 -19.1°
